Location: Unspecified
(51.5147°N, 7.4673°E)
Time: 08:31:43
(UTC+01:00)

Explorer 7 - Pass Details

Date: 17 February 2026
Orbit: 430 x 541 km, 50.2° (Epoch: 11 March)

Event Time Altitude Azimuth Distance (km) Brightness Sun altitude
Rises 17:54:18 0° 257° (WSW) 2,470 13.4 -1.7°
Reaches altitude 10° 17:56:24 10° 255° (WSW) 1,615 11.4 -2.0°
Maximum altitude 18:00:02 69° 172° (S) 514 6.8 -2.5°
Drops below altitude 10° 18:03:49 10° 89° (E) 1,687 8.7 -3.1°
Enters shadow 18:05:12 - 88° (E) 2,244 9.3 -3.3°
Sets 18:06:04 0° 87° (E) 2,592 - -3.4°
